Погода в Первомаевке

Украина / Херсонская область     47°19′44″N   34°05′57″E
темп.,
°C
ветер,
м/с
пор.,
м/с
влажн.,
%
обл.,
%
осадки,
мм/ч
давл.,
гПа
погр.,
м
16 апреля, пт
пт1600:00+7ююз71190100 0.3 1014427
03:00+6ююз71192100 0.6 1014414
06:00+7ююз7119051 0.4 1015460
09:00+8юз8108041 0.4 1015509
12:00+11ююз796295 0.1 1015618
15:00+11юз8115690 0.7 1015861
18:00+10зюз810636 0.4 1016572
21:00+7зсз597722 0.7 1018369
17 апреля, сб
сб1700:00+6юз497998 0.0 1018428
03:00+6зюз5108478 0.1 1019616
06:00+5юз479144 0.0 1020217
09:00+7зюз45775 0.0 1021377
12:00+10юз346568 0.0 1021499
15:00+12юз2455100 0.0 1020672
18:00+12ю2458100 0.0 1020328
21:00+10юз466592 0.0 102091
18 апреля, вс
вс1800:00+7ю467587 0.0 1020108
03:00+7ю336971 0.0 102056
06:00+6юв226830 0.0 101942
09:00+9юв346661 0.0 1019200
12:00+12вюв33545 0.0 1018574
15:00+13св224850 0.0 1017744
18:00+12ссв345539 0.0 1017226
21:00+10вюв2370100 0.0 101735
19 апреля, пн
пн1900:00+8ю2285100 0.0 101730
03:00+8ююв228521 0.0 101618
06:00+7в228593 0.0 101537
09:00+9всв457873 0.0 1015157
12:00+11в5675100 0.0 1014316
15:00+13в4674100 0.1 1011444
18:00+12вюв4781100 0.2 1009327
21:00+10вюв5897100 7.4 1006264
20 апреля, вт
вт2000:00+10в61097100 7.3 1002307
03:00+11ю61097100 15.3 999334
06:00+10ююз81290100 0.3 997516
09:00+10ююз10138097 0.5 996703
12:00+9ююв121885100 0.8 9951491
15:00+9ююз151986100 1.9 9931110
18:00+9зюз91482100 0.9 997672
21:00+8зюз101588100 1.4 10021200